Regional Weather Roundup
Issued by NWS

Home | Current Version | Previous Version | Text Only | Print | Product List | Glossary On
Versions: 1 2 3 4 5 6 7 8 9 10 11 12 13 14 15 16 17 18 19 20 21 22 23 24 25 26 27 28 29 30 31 32 33 34 35 36 37 38 39 40 41 42 43 44 45 46 47 48 49 50
000
ASUS43 KMKX 280711
RWRWI

WISCONSIN REGIONAL WEATHER ROUNDUP
NATIONAL WEATHER SERVICE MILWAUKEE/SULLIVAN WI
100 AM CST TUE FEB 28 2017

NOTE: "FAIR" INDICATES FEW OR NO CLOUDS BELOW 12,000 FEET WITH NO
SIGNIFICANT WEATHER AND/OR OBSTRUCTIONS TO VISIBILITY.

WIZ001-002-006>008-014>016-023>028-280800-
NORTHWEST WISCONSIN

CITY           SKY/WX    TMP DP  RH WIND       PRES   REMARKS
SUPERIOR ARPT  PTCLDY    28  27  98 E3        29.87F
ASHLAND        MOCLDY    25  23  92 CALM      29.88F
HAYWARD        CLOUDY    36  25  64 SE6       29.84F WCI  31
SIREN          CLOUDY    36  25  65 SE7       29.82F WCI  30
CUMBERLAND     CLOUDY    32  25  74 CALM      29.84F
RICE LAKE      CLOUDY    35  26  72 SE10      29.86F WCI  27
CHETEK         CLOUDY    33  26  76 CALM      29.85F
LADYSMITH      CLOUDY    33  27  79 SE6       29.88F WCI  27
EAU CLAIRE     MOCLDY    33  27  78 E3        29.84F
MENOMONIE      CLOUDY    32  28  82 CALM      29.84F
NEW RICHMOND   CLOUDY    36  28  73 SE6       29.82F WCI  31
OSCEOLA        CLOUDY    37  28  70 SE7       29.83F WCI  32
$$

WIZ003>005-009-010-017-018-280800-
NORTH CENTRAL WISCONSIN

CITY           SKY/WX    TMP DP  RH WIND       PRES   REMARKS
MANITOWISH WTR CLOUDY    30  26  82 SE6       29.89S WCI  24
ARBOR VITAE    CLOUDY    34  28  80 S7          N/A  WCI  28
WOODRUFF       CLOUDY    34  28  80 S7          N/A  WCI  28
RHINELANDER    CLOUDY    34  28  79 SE6       29.91F WCI  29
EAGLE RIVER    CLOUDY    32  26  77 S5        29.90F WCI  27
LAND O LAKES   CLOUDY    33  28  80 S7        29.92F WCI  27
PHILLIPS       CLOUDY    32  28  84 CALM      29.88F
TOMAHAWK       CLOUDY    32  28  84 CALM      29.91F
MEDFORD        PTCLDY    33  28  82 SE7       29.88F WCI  27
MERRILL        NOT AVBL
$$

WIZ029-030-035-036-043>047-280800-
CENTRAL WISCONSIN

CITY           SKY/WX    TMP DP  RH WIND       PRES   REMARKS
WAUSAU         CLOUDY    32  28  85 E7        29.91F WCI  26
MOSINEE        CLOUDY    34  32  93 SE7       29.92F WCI  28
MARSHFIELD     CLOUDY    34  28  79 E7        29.88F WCI  28
STEVENS POINT  CLOUDY    34  30  84 SE5       29.93F WCI  30
WAUPACA        CLOUDY    35  32  88 E5        29.96F WCI  31
WAUTOMA        CLOUDY    31  28  89 CALM      29.95F
WISC RAPIDS    CLOUDY    38  31  76 SE7       29.92F WCI  33
CAMP DOUGLAS   MIX PCPN  38  31  77 SE9       29.91F WCI  31
$$

WIZ011>013-019>022-031-037>040-048>050-280800-
NORTHEAST WISCONSIN

CITY           SKY/WX    TMP DP  RH WIND       PRES   REMARKS
ANTIGO         CLOUDY    31  29  92 SE9       29.94F WCI  23
SHAWANO        CLOUDY    32  29  90 CALM      29.97F FOG
OCONTO         PTCLDY    30  29  96 SE6       29.99F WCI  24
STURGEON BAY   PTCLDY    36  34  92 E6        30.01F WCI  31
GREEN BAY      CLOUDY    37  33  85 SE7       29.98F WCI  32
MANITOWOC      CLOUDY    35  33  92 SE5       30.02F FOG     WCI  31
APPLETON       CLOUDY    34  30  86 SE7       29.95F WCI  28
CLINTONVILLE   CLOUDY    32  30  93 CALM      29.96F
OSHKOSH        PTCLDY    39  32  76 SE8       29.96F WCI  33
$$

WIZ032>034-041-042-053>061-280800-
SOUTHWEST WISCONSIN

CITY           SKY/WX    TMP DP  RH WIND       PRES   REMARKS
LA CROSSE      CLOUDY    43  34  70 S9        29.86F
SPARTA         DRIZZLE   42  35  74 S10G16    29.90F
VIROQUA        CLOUDY    39  36  89 SE7       29.89F WCI  34
BOSCOBEL       LGT RAIN  40  37  89 NE5       29.88F
PRAIRIE DU CHI LGT RAIN  41  37  85 E5        29.86F
PLATTEVILLE    CLOUDY    42  38  88 E12       29.86F
$$

WIZ056-057-062-063-064-067-068-280800-
SOUTH CENTRAL WISCONSIN

CITY           SKY/WX    TMP DP  RH WIND       PRES   REMARKS
REEDSBURG      LGT RAIN  37  37 100 CALM      29.92F
BARABOO/DELLS  RAIN      38  34  84 CALM      29.93F
LONE ROCK      CLOUDY    41  37  86 E8        29.90F
MINERAL POINT  CLOUDY    43  36  75 E9        29.87F
MADISON        CLOUDY    42  34  73 SE3       29.93F
MIDDLETON      CLOUDY    42  35  75 E5        29.93F
WATERTOWN      CLOUDY    42  36  80 SE8       29.94F
MONROE         RAIN      41  37  87 MISG      29.91F
JANESVILLE     CLOUDY    45  39  81 SE8       29.91F
$$

WIZ051-052-058>065-066-070>072-280800-
SOUTHEAST WISCONSIN

CITY           SKY/WX    TMP DP  RH WIND       PRES   REMARKS
MILWAUKEE      CLOUDY    43  36  76 SE10      30.00F
WAUKESHA       CLOUDY    41  34  75 SE7       29.98F
MILWAUKEE/TIMM CLOUDY    43  34  70 SE9       30.00F
RACINE         CLOUDY    41  35  79 S9        30.02F
KENOSHA        CLOUDY    44  37  76 SE10      29.99F
FOND DU LAC    LGT RAIN  40  31  70 S9        29.97F WCI  34
SHEBOYGAN      MOCLDY    38  34  85 S9        30.01F WCI  31
WEST BEND      CLOUDY    39  36  87 SE5       29.98F
JUNEAU         DRIZZLE   40  34  81 SE9       29.96F WCI  33
$$

LSZ147-162-280800-
LAKE SUPERIOR

STATION/POSITION TIME  TEMP    WIND        PRES    WAVE
                       AIR SEA DIR/SP/G            HT/PER
                 (UTC) (F)     (DEG/KT/KT) (MB)    (FT/S)
DEVILS ISLAND    0700   33      50/  6/  7 1013.1F
PORT WING        0630   26     120/  4/  5 1012.5F
SAXON HARBOR     0630   33      CALM  /  3 1012.2R
$$

LMZ867-665-643>646-280800-
LAKE MICHIGAN

STATION/POSITION TIME  TEMP    WIND        PRES    WAVE
                       AIR SEA DIR/SP/G            HT/PER
                 (UTC) (F)     (DEG/KT/KT) (MB)    (FT/S)
CHAMBERS ISLAND  0640   38     150/  4/  8 1015.9F
NORTHPORT PIER   0640   37     150/  7/  9 1016.9F
SISTER BAY       0635   36     140/ 10/ 13   N/A
ALGOMA LAKESHORE 0641          140/  5/  5   N/A
KEWAUNEE LAKESHO 0648          140/  3/  5 1016.0F
SHEBOYGAN LAKESH 0700   38     180/ 11/ 12 1016.7F
PORT WASHINGTON  0630   39      90/  3/  4 1017.3F
MILWAUKEE LAKESH 0650   40     150/ 13/ 14   N/A
KENOSHA   LAKESH 0700   39     150/ 10/ 11 1015.6
$$

TC  - TEMPERATURE IN CELSIUS
VSB - VISIBILITY IN STATUTE MILES
WCI - WIND CHILL INDEX
HX  - HEAT INDEX




USA.gov is the U.S. government's official web portal to all federal, state and local government web resources and services.